Bangor, ME

8:50 AM EST on December 15, 2019 (GMT -0500)
Bangor International

Weather History for KBGR - October, 2019

Change the Weather History Date:

Saturday, October 19, 2019

  Actual Average Record
Temperature  
Mean Temperature 46 °F 46 °F  
Max Temperature 57 °F 56 °F 82 °F (1963)
Min Temperature 35 °F 36 °F 17 °F (1939)
Degree Days  
Heating Degree Days 19 19  
Month to date heating degree days 280 300  
Since 1 July heating degree days 494 572  
Cooling Degree Days 0 0  
Month to date cooling degree days 0 0  
Year to date cooling degree days 336 317  
Moisture  
Dew Point 35 °F    
Average Humidity 64    
Maximum Humidity 85    
Minimum Humidity 43    
Precipitation  
Precipitation 0.00 in 0.14 in 0.67 in (1981)
Month to date precipitation 2.74 2.58  
Year to date precipitation 41.76 32.66  
Snow  
Snow 0.00 in 0.00 in T in (2015)
Month to date snowfall 0.0 0.0  
Since 1 July snowfall 0.0 0.0  
Since 1 September snowfall 0.0 0.0  
Snow Depth 0.00 in    
Sea Level Pressure  
Sea Level Pressure 29.91 in    
Wind  
Wind Speed 8 mph (WNW)    
Max Wind Speed 21 mph    
Max Gust Speed 27 mph    
Visibility 10 miles    
Events      
T = Trace of Precipitation, MM = Missing Value Source: NWS Daily Summary

Daily Weather History Graph

Daily Weather History Graph

Search for Another Location

Airport or City:

Astronomy

Oct. 19, 2019 Rise Set
Actual Time 6:55 AM EDT 5:44 PM EDT
Civil Twilight 6:25 AM EDT 6:13 PM EDT
Nautical Twilight 5:51 AM EDT 6:47 PM EDT
Astronomical Twilight 5:18 AM EDT 7:21 PM EDT
Moon 9:39 PM EDT (10/19) 12:35 PM EDT (10/19)
Length of Visible Light 11h 47m
Length of Day
10h 48m
Waning Gibbous, 70% of the Moon is Illuminated
Oct 19
Waning Gibbous
Oct 21
Last Quarter
Oct 27
New
Nov 4
First Quarter
Nov 12
Full

Hourly Weather History & Observations

Time (EDT) Temp. Windchill Dew Point Humidity Pressure Visibility Wind Dir Wind Speed Gust Speed Precip Events Conditions
12:53 AM 45.0 °F 41.2 °F 37.0 °F 74% 29.80 in 10.0 mi Variable 6.9 mph - N/A   Clear
1:53 AM 46.0 °F 43.9 °F 37.9 °F 73% 29.81 in 10.0 mi West 4.6 mph - N/A   Mostly Cloudy
2:53 AM 46.9 °F - 37.9 °F 71% 29.82 in 10.0 mi WNW 8.1 mph - N/A   Overcast
3:53 AM 45.0 °F 41.2 °F 37.0 °F 74% 29.83 in 10.0 mi West 6.9 mph - N/A   Partly Cloudy
4:53 AM 44.1 °F 40.1 °F 36.0 °F 73% 29.84 in 10.0 mi West 6.9 mph - N/A   Clear
5:53 AM 43.0 °F 40.3 °F 36.0 °F 76% 29.86 in 10.0 mi West 4.6 mph - N/A   Clear
6:53 AM 42.1 °F 37.7 °F 35.1 °F 76% 29.87 in 10.0 mi West 6.9 mph - N/A   Clear
7:53 AM 44.1 °F 42.5 °F 36.0 °F 73% 29.89 in 10.0 mi West 3.5 mph - N/A   Clear
8:53 AM 46.9 °F - 35.1 °F 63% 29.90 in 10.0 mi NW 9.2 mph 21.9 mph N/A   Partly Cloudy
9:53 AM 48.9 °F - 35.1 °F 59% 29.90 in 10.0 mi WNW 13.8 mph 24.2 mph N/A   Partly Cloudy
10:53 AM 51.1 °F - 34.0 °F 52% 29.91 in 10.0 mi WNW 15.0 mph 24.2 mph N/A   Partly Cloudy
11:53 AM 53.1 °F - 34.0 °F 48% 29.91 in 10.0 mi NW 12.7 mph 23.0 mph N/A   Scattered Clouds
12:53 PM 54.0 °F - 34.0 °F 47% 29.90 in 10.0 mi WNW 13.8 mph 20.7 mph N/A   Partly Cloudy
1:53 PM 55.9 °F - 35.1 °F 45% 29.90 in 10.0 mi NW 12.7 mph 19.6 mph N/A   Partly Cloudy
2:53 PM 55.9 °F - 34.0 °F 44% 29.90 in 10.0 mi NW 13.8 mph 18.4 mph N/A   Partly Cloudy
3:53 PM 55.9 °F - 35.1 °F 45% 29.91 in 10.0 mi NW 12.7 mph - N/A   Partly Cloudy
4:53 PM 55.0 °F - 35.1 °F 47% 29.92 in 10.0 mi NNW 13.8 mph - N/A   Partly Cloudy
5:53 PM 51.1 °F - 36.0 °F 56% 29.94 in 10.0 mi NW 5.8 mph - N/A   Partly Cloudy
6:53 PM 48.0 °F - 35.1 °F 61% 29.97 in 10.0 mi NW 8.1 mph - N/A   Clear
7:53 PM 48.0 °F - 35.1 °F 61% 29.99 in 10.0 mi NW 8.1 mph - N/A   Clear
8:53 PM 41.0 °F 38.0 °F 35.1 °F 79% 30.02 in 10.0 mi WSW 4.6 mph - N/A   Clear
9:53 PM 44.1 °F 39.5 °F 35.1 °F 71% 30.03 in 10.0 mi West 8.1 mph - N/A   Clear
10:53 PM 42.1 °F 37.7 °F 34.0 °F 73% 30.04 in 10.0 mi West 6.9 mph - N/A   Clear
11:53 PM 37.0 °F - 33.1 °F 86% 30.04 in 10.0 mi Calm Calm - N/A   Clear